Location: Arbocrest Acres
(39.2134°N, 84.4144°W)
Time: 22:06:48
(UTC+00:00)

X-37B - Pass Details

Date: 08 December 2022
Orbit: 277 x 277 km, 45.0° (Epoch: 01 November)

Event Time Altitude Azimuth Distance (km) Brightness Sun altitude
Rises 23:28:44 0° 251° (WSW) 1,907 6.1 -14.0°
Reaches altitude 10° 23:30:39 10° 255° (WSW) 1,097 4.3 -14.3°
Maximum altitude 23:33:05 60° 338° (NNW) 321 0.1 -14.8°
Enters shadow 23:33:32 47° 29° (NNE) 377 0.2 -14.9°
